EW6612 Weather Reports


Display with metric or nautical units.
time (UTC)temp
F
wind
direction
speed
MPH
gust
MPH
rain 1hr
in
rain 24hr
in
rain mn
in
humidity
%
barometer
mb
20220127133200 65 127 3.0 13.0 0.00 0.00 0.00 45 1026.8
20220127132159 65 111 4.0 13.0 0.00 0.00 0.00 46 1026.8
20220127131151 64 159 4.0 13.0 0.00 0.00 0.00 48 1026.9
20220127130155 64 104 8.0 16.0 0.00 0.00 0.00 48 1027.0
20220127125152 64 113 6.0 15.0 0.00 0.00 0.00 48 1027.2
20220127124152 64 111 3.0 14.0 0.00 0.00 0.00 46 1027.3
20220127123158 64 61 6.0 14.0 0.00 0.00 0.00 47 1027.5
20220127122155 63 74 3.0 17.0 0.00 0.00 0.00 49 1027.7
20220127121159 63 84 5.0 14.0 0.00 0.00 0.00 50 1027.8
20220127120158 63 59 7.0 15.0 0.00 0.00 0.00 49 1028.0
20220127115156 63 109 5.0 15.0 0.00 0.00 0.00 50 1028.1
20220127114149 63 132 3.0 16.0 0.00 0.00 0.00 53 1028.2
20220127113151 62 103 7.0 15.0 0.00 0.00 0.00 52 1028.2
20220127112154 62 98 5.0 16.0 0.00 0.00 0.00 54 1028.3
20220127111151 61 111 9.0 18.0 0.00 0.00 0.00 55 1028.3
20220127110146 61 105 6.0 17.0 0.00 0.00 0.00 57 1028.5
20220127105152 60 109 2.0 13.0 0.00 0.00 0.00 61 1028.3
20220127104151 58 19 0.0 0.0 0.00 0.00 0.00 69 1028.4
20220127103148 56 30 0.0 0.0 0.00 0.00 0.00 73 1028.4
20220127102131 54 9 0.0 0.0 0.00 0.00 0.00 79 1028.3
20220127101125 52 9 0.0 0.0 0.00 0.00 0.00 85 1028.3
20220127100122 51 9 0.0 1.0 0.00 0.00 0.00 85 1028.5
20220127095128 50 9 0.0 0.0 0.00 0.00 0.00 85 1028.3
20220127094114 50 9 0.0 1.0 0.00 0.00 0.00 85 1028.3
20220127093109 49 9 0.0 0.0 0.00 0.00 0.00 88 1028.3
20220127092113 48 9 0.0 1.0 0.00 0.00 0.00 89 1028.2
20220127091105 46 9 0.0 0.0 0.00 0.00 0.00 92 1028.2
20220127090108 45 9 0.0 0.0 0.00 0.00 0.00 93 1028.1
20220127085105 44 9 0.0 0.0 0.00 0.00 0.00 93 1028.0
20220127084059 43 5 0.0 0.0 0.00 0.00 0.00 92 1028.0
20220127083100 43 5 0.0 0.0 0.00 0.00 0.00 92 1027.9
20220127082054 43 312 0.0 1.0 0.00 0.00 0.00 93 1027.7
20220127081059 43 312 0.0 0.0 0.00 0.00 0.00 92 1027.7
20220127080056 42 312 0.0 0.0 0.00 0.00 0.00 92 1027.6
20220127075055 42 269 0.0 0.0 0.00 0.00 0.00 92 1027.6
20220127074051 42 269 0.0 0.0 0.00 0.00 0.00 92 1027.3
20220127073019 42 269 0.0 0.0 0.00 0.00 0.00 92 1027.2
20220127072014 43 269 0.0 0.0 0.00 0.00 0.00 92 1027.1
20220127070953 43 269 0.0 0.0 0.00 0.00 0.00 92 1027.1
20220127070002 42 269 0.0 0.0 0.00 0.00 0.00 92 1027.0
20220127064958 42 269 0.0 0.0 0.00 0.00 0.00 92 1026.9
20220127063943 42 269 0.0 0.0 0.00 0.00 0.00 92 1026.8
20220127062932 42 269 0.0 0.0 0.00 0.00 0.00 92 1026.8
20220127061926 42 269 0.0 0.0 0.00 0.00 0.00 93 1026.7
20220127060913 42 269 0.0 0.0 0.00 0.00 0.00 93 1026.6
20220127055917 41 269 0.0 0.0 0.00 0.00 0.00 93 1026.6
20220127054905 41 269 0.0 0.0 0.00 0.00 0.00 92 1026.4
20220127053836 40 269 0.0 0.0 0.00 0.00 0.00 91 1026.5
20220127052840 40 269 0.0 0.0 0.00 0.00 0.00 91 1026.4
20220127051839 41 269 0.0 0.0 0.00 0.00 0.00 90 1026.5
20220127050821 41 255 0.0 0.0 0.00 0.00 0.00 91 1026.4
20220127045818 41 255 0.0 0.0 0.00 0.00 0.00 92 1026.4
20220127044808 41 255 0.0 0.0 0.00 0.00 0.00 91 1026.3
20220127043807 41 255 0.0 0.0 0.00 0.00 0.00 91 1026.3
20220127042756 41 55 0.0 0.0 0.00 0.00 0.00 90 1026.3
20220127041742 41 55 0.0 0.0 0.00 0.00 0.00 90 1026.2
20220127040739 41 55 0.0 0.0 0.00 0.00 0.00 90 1026.2
20220127035722 41 55 0.0 0.0 0.00 0.00 0.00 89 1026.3
20220127034724 41 55 0.0 1.0 0.00 0.00 0.00 88 1026.4
20220127033712 42 149 0.0 1.0 0.00 0.00 0.00 88 1026.3
20220127032707 42 147 0.0 0.0 0.00 0.00 0.00 87 1026.3
20220127031659 43 280 0.0 0.0 0.00 0.00 0.00 88 1026.3
20220127030658 43 280 0.0 0.0 0.00 0.00 0.00 87 1026.4
20220127025631 44 280 0.0 0.0 0.00 0.00 0.00 85 1026.5
20220127024627 44 280 0.0 0.0 0.00 0.00 0.00 85 1026.5
20220127023627 45 280 0.0 0.0 0.00 0.00 0.00 85 1026.5
20220127022622 46 280 0.0 0.0 0.00 0.00 0.00 84 1026.6
20220127021619 46 280 0.0 0.0 0.00 0.00 0.00 83 1026.6
20220127020621 47 280 0.0 0.0 0.00 0.00 0.00 83 1026.6
20220127015617 48 280 0.0 0.0 0.00 0.00 0.00 83 1026.5
20220127014607 48 280 0.0 0.0 0.00 0.00 0.00 82 1026.5
20220127013600 48 280 0.0 0.0 0.00 0.00 0.00 82 1026.6
20220127012554 48 280 0.0 0.0 0.00 0.00 0.00 82 1026.6
20220127011547 48 280 0.0 0.0 0.00 0.00 0.00 83 1026.7
20220127010538 48 280 0.0 0.0 0.00 0.00 0.00 83 1026.8
20220127005532 48 280 0.0 3.0 0.00 0.00 0.00 83 1026.7
20220127004522 48 281 0.0 0.0 0.00 0.00 0.00 82 1026.7
20220127003503 48 274 0.0 0.0 0.00 0.00 0.00 81 1026.8
20220127002456 48 274 0.0 0.0 0.00 0.00 0.00 81 1027.0
20220127001456 48 274 0.0 0.0 0.00 0.00 0.00 82 1027.0
20220127000448 48 30 0.0 1.0 0.00 0.00 0.00 82 1026.9
20220126235441 48 30 0.0 0.0 0.00 0.00 0.00 82 1026.9
20220126234435 49 30 0.0 1.0 0.00 0.00 0.00 81 1026.9
20220126233422 49 15 0.0 0.0 0.00 0.00 0.00 80 1027.0
20220126232414 49 15 0.0 0.0 0.00 0.00 0.00 80 1026.9
20220126231407 49 15 0.0 0.0 0.00 0.00 0.00 79 1026.9
20220126230358 50 15 0.0 1.0 0.00 0.00 0.00 78 1026.9
20220126225350 50 15 0.0 0.0 0.00 0.00 0.00 77 1026.9
20220126224347 50 22 0.0 1.0 0.00 0.00 0.00 77 1026.8
20220126223349 50 64 0.0 1.0 0.00 0.00 0.00 79 1026.8
20220126222347 49 64 0.0 0.0 0.00 0.00 0.00 81 1026.7
20220126221338 49 64 0.0 0.0 0.00 0.00 0.00 82 1026.8
20220126220333 49 64 0.0 0.0 0.00 0.00 0.00 82 1026.8
20220126215318 49 64 0.0 1.0 0.00 0.00 0.00 81 1026.8
20220126214314 50 64 0.0 0.0 0.00 0.00 0.00 80 1026.9
20220126213311 50 64 0.0 0.0 0.00 0.00 0.00 81 1026.8
20220126212307 50 64 0.0 0.0 0.00 0.00 0.00 80 1026.8
20220126211254 51 64 0.0 0.0 0.00 0.00 0.00 80 1026.7
20220126210241 51 64 0.0 0.0 0.00 0.00 0.00 80 1026.8
20220126205232 51 64 0.0 0.0 0.00 0.00 0.00 79 1026.7
20220126204227 51 64 0.0 0.0 0.00 0.00 0.00 78 1026.8
20220126203217 51 64 0.0 0.0 0.00 0.00 0.00 79 1026.7
20220126202211 52 64 0.0 0.0 0.00 0.00 0.00 78 1026.6
20220126201202 52 64 0.0 0.0 0.00 0.00 0.00 77 1026.5
20220126200154 52 64 0.0 0.0 0.00 0.00 0.00 77 1026.5
20220126195146 52 64 0.0 0.0 0.00 0.00 0.00 77 1026.5
20220126194123 52 64 0.0 0.0 0.00 0.00 0.00 76 1026.5
20220126193121 53 64 0.0 0.0 0.00 0.00 0.00 76 1026.4
20220126192116 53 64 0.0 0.0 0.00 0.00 0.00 75 1026.4
20220126191122 53 64 0.0 0.0 0.00 0.00 0.00 75 1026.2
20220126190117 53 64 0.0 0.0 0.00 0.00 0.00 75 1026.2
20220126185112 53 64 0.0 0.0 0.00 0.00 0.00 74 1026.1
20220126184101 54 64 0.0 0.0 0.00 0.00 0.00 73 1026.2
20220126183101 54 64 0.0 0.0 0.00 0.00 0.00 72 1026.2
20220126182058 55 64 0.0 0.0 0.00 0.00 0.00 71 1026.1
20220126181052 55 64 0.0 0.0 0.00 0.00 0.00 70 1026.0
20220126180047 56 64 0.0 0.0 0.00 0.00 0.00 69 1025.9
20220126175043 58 64 0.0 0.0 0.00 0.00 0.00 66 1025.8
20220126174037 59 64 0.0 0.0 0.00 0.00 0.00 60 1025.8
20220126173034 60 51 0.0 2.0 0.00 0.00 0.00 56 1025.7
20220126172029 60 89 0.0 0.0 0.00 0.00 0.00 56 1025.6
20220126171033 60 41 0.0 1.0 0.00 0.00 0.00 55 1025.6
20220126170034 60 71 0.0 2.0 0.00 0.00 0.00 55 1025.5
20220126165025 61 78 0.0 5.0 0.00 0.00 0.00 54 1025.4
20220126164019 61 73 0.0 0.0 0.00 0.00 0.00 55 1025.4
20220126163023 61 75 0.0 0.0 0.00 0.00 0.00 56 1025.4
20220126162022 61 42 0.0 5.0 0.00 0.00 0.00 52 1025.4
20220126161017 62 40 0.0 3.0 0.00 0.00 0.00 51 1025.5
20220126160021 62 78 3.0 12.0 0.00 0.00 0.00 51 1025.5
20220126155016 62 51 3.0 12.0 0.00 0.00 0.00 52 1025.5
20220126154017 62 57 3.0 12.0 0.00 0.00 0.00 51 1025.5
20220126153017 62 82 5.0 14.0 0.00 0.00 0.00 50 1025.5
20220126152016 62 121 5.0 15.0 0.00 0.00 0.00 50 1025.5
20220126151029 62 119 6.0 15.0 0.00 0.00 0.00 48 1025.5
20220126150020 62 80 3.0 12.0 0.00 0.00 0.00 50 1025.5
20220126145015 62 105 2.0 11.0 0.00 0.00 0.00 51 1025.5
20220126144007 62 65 4.0 13.0 0.00 0.00 0.00 49 1025.6
20220126143007 62 82 4.0 14.0 0.00 0.00 0.00 50 1025.7
20220126142002 62 140 4.0 12.0 0.00 0.00 0.00 52 1025.8
20220126141003 62 133 3.0 13.0 0.00 0.00 0.00 50 1025.8
20220126140007 62 81 3.0 13.0 0.00 0.00 0.00 52 1025.9
20220126135005 62 61 3.0 12.0 0.00 0.00 0.00 50 1026.1